| time (UTC) | temp F | wind direction | speed knots | gust knots | rain 1hr in | rain 24hr in | rain mn in | humidity % | barometer mb |
| 20260510220147 | 83 | 175 | 4.3 | 4.3 | 0.00 | 0.04 | 0.01 | 67 | 1014.1 |
| 20260510214647 | 84 | 155 | 1.7 | 4.3 | 0.00 | 0.04 | 0.01 | 64 | 1014.0 |
| 20260510213147 | 85 | 195 | 0.0 | 2.6 | 0.00 | 0.04 | 0.01 | 65 | 1014.1 |
| 20260510211647 | 84 | 193 | 0.0 | 5.2 | 0.00 | 0.04 | 0.01 | 66 | 1014.0 |
| 20260510210147 | 84 | 209 | 2.6 | 4.3 | 0.00 | 0.05 | 0.01 | 67 | 1014.1 |
| 20260510204647 | 82 | 201 | 1.7 | 5.2 | 0.00 | 0.05 | 0.01 | 70 | 1014.1 |
| 20260510200146 | 86 | 170 | 1.7 | 2.6 | 0.00 | 0.05 | 0.01 | 64 | 1014.0 |
| 20260510194645 | 85 | 132 | 0.0 | 0.0 | 0.00 | 0.05 | 0.01 | 62 | 1014.1 |
| 20260510193145 | 86 | 127 | 0.0 | 0.0 | 0.00 | 0.05 | 0.01 | 62 | 1014.3 |
| 20260510191645 | 86 | 278 | 0.0 | 1.7 | 0.00 | 0.05 | 0.01 | 63 | 1014.4 |
| 20260510190145 | 85 | 55 | 0.0 | 1.7 | 0.00 | 0.05 | 0.01 | 64 | 1014.8 |
| 20260510184645 | 86 | 215 | 0.0 | 0.0 | 0.00 | 0.05 | 0.01 | 62 | 1014.9 |
| 20260510183144 | 85 | 274 | 0.0 | 0.0 | 0.00 | 0.05 | 0.01 | 63 | 1015.0 |
| 20260510181644 | 87 | 332 | 0.0 | 0.0 | 0.00 | 0.05 | 0.01 | 62 | 1015.0 |
| 20260510174644 | 84 | 295 | 0.0 | 0.0 | 0.00 | 0.05 | 0.01 | 66 | 1015.2 |
| 20260510173143 | 82 | 110 | 0.0 | 0.0 | 0.00 | 0.06 | 0.01 | 70 | 1015.3 |
| 20260510171643 | 81 | 356 | 0.0 | 0.0 | 0.00 | 0.06 | 0.01 | 70 | 1015.5 |
| 20260510170143 | 81 | 30 | 0.0 | 2.6 | 0.00 | 0.07 | 0.01 | 71 | 1015.7 |
| 20260510163143 | 82 | 209 | 1.7 | 2.6 | 0.00 | 0.13 | 0.01 | 68 | 1015.7 |
| 20260510161642 | 79 | 113 | 0.0 | 1.7 | 0.00 | 0.16 | 0.01 | 74 | 1015.8 |
| 20260510154642 | 81 | 6 | 0.0 | 0.0 | 0.00 | 0.33 | 0.01 | 71 | 1015.8 |
| 20260510153141 | 81 | 151 | 0.0 | 4.3 | 0.00 | 0.48 | 0.01 | 70 | 1015.9 |
| 20260510151641 | 80 | 200 | 0.0 | 0.0 | 0.00 | 0.81 | 0.01 | 76 | 1016.0 |
| 20260510150141 | 78 | 193 | 1.7 | 1.7 | 0.00 | 1.09 | 0.01 | 81 | 1016.1 |
| 20260510144640 | 75 | 185 | 0.0 | 0.0 | 0.00 | 1.15 | 0.01 | 86 | 1016.2 |
| 20260510143141 | 74 | 15 | 0.0 | 1.7 | 0.00 | 1.15 | 0.01 | 88 | 1016.2 |
| 20260510141640 | 73 | 42 | 2.6 | 2.6 | 0.00 | 1.15 | 0.01 | 92 | 1016.2 |
| 20260510140140 | 73 | 191 | 0.0 | 0.0 | 0.00 | 1.18 | 0.01 | 95 | 1016.0 |
| 20260510134640 | 71 | 21 | 0.0 | 1.7 | 0.00 | 1.18 | 0.01 | 94 | 1015.8 |
| 20260510133139 | 69 | 345 | 0.0 | 0.0 | 0.00 | 1.20 | 0.01 | 95 | 1015.7 |
| 20260510131639 | 69 | 79 | 0.0 | 0.0 | 0.00 | 1.22 | 0.01 | 95 | 1015.7 |
| 20260510130139 | 67 | 79 | 0.0 | 0.0 | 0.00 | 1.23 | 0.01 | 95 | 1015.6 |
| 20260510124638 | 66 | 17 | 0.0 | 1.7 | 0.00 | 1.23 | 0.01 | 95 | 1015.5 |
| 20260510123138 | 65 | 160 | 0.0 | 0.0 | 0.00 | 1.23 | 0.01 | 95 | 1015.3 |
| 20260510120138 | 64 | 146 | 0.0 | 1.7 | 0.00 | 1.23 | 0.01 | 95 | 1014.8 |
| 20260510114638 | 64 | 284 | 0.0 | 0.0 | 0.00 | 1.24 | 0.01 | 95 | 1014.6 |
| 20260510113137 | 64 | 283 | 0.0 | 0.0 | 0.01 | 1.24 | 0.01 | 95 | 1014.4 |
| 20260510110137 | 64 | 287 | 0.0 | 0.0 | 0.01 | 1.24 | 0.01 | 95 | 1013.9 |
| 20260510103136 | 64 | 288 | 0.0 | 0.0 | 0.00 | 1.23 | 0.00 | 95 | 1013.5 |
| 20260510101636 | 64 | 287 | 0.0 | 0.0 | 0.00 | 1.23 | 0.00 | 95 | 1013.2 |
| 20260510100206 | 65 | 288 | 0.0 | 0.0 | 0.00 | 1.23 | 0.00 | 95 | 1013.2 |
| 20260510094635 | 65 | 349 | 0.0 | 0.0 | 0.00 | 1.23 | 0.00 | 95 | 1013.1 |
| 20260510093135 | 65 | 108 | 0.0 | 0.0 | 0.00 | 1.23 | 0.00 | 95 | 1012.9 |
| 20260510091635 | 65 | 108 | 0.0 | 0.0 | 0.00 | 1.23 | 0.00 | 95 | 1012.8 |
| 20260510090205 | 65 | 108 | 0.0 | 0.0 | 0.00 | 1.23 | 0.00 | 95 | 1012.5 |
| 20260510084705 | 65 | 108 | 0.0 | 0.0 | 0.00 | 1.23 | 0.00 | 95 | 1012.3 |
| 20260510083204 | 66 | 108 | 0.0 | 0.0 | 0.00 | 1.24 | 0.00 | 95 | 1012.3 |
| 20260510081704 | 66 | 108 | 0.0 | 0.0 | 0.00 | 1.25 | 0.00 | 95 | 1012.2 |
| 20260510074703 | 66 | 109 | 0.0 | 0.0 | 0.00 | 1.25 | 0.00 | 95 | 1011.9 |
| 20260510071703 | 66 | 109 | 0.0 | 0.0 | 0.00 | 1.26 | 0.00 | 95 | 1011.7 |
| 20260510070203 | 66 | 109 | 0.0 | 0.0 | 0.00 | 1.26 | 0.00 | 95 | 1011.9 |
| 20260510064703 | 67 | 108 | 0.0 | 0.0 | 0.00 | 1.26 | 0.00 | 95 | 1012.2 |
| 20260510063202 | 67 | 108 | 0.0 | 0.0 | 0.00 | 1.26 | 0.00 | 95 | 1012.3 |
| 20260510061702 | 67 | 108 | 0.0 | 0.0 | 0.00 | 1.26 | 0.00 | 95 | 1012.3 |
| 20260510060202 | 67 | 108 | 0.0 | 0.0 | 0.00 | 1.26 | 0.00 | 95 | 1012.5 |
| 20260510054702 | 67 | 108 | 0.0 | 0.0 | 0.00 | 1.26 | 0.00 | 95 | 1012.2 |
| 20260510053201 | 67 | 205 | 0.0 | 0.0 | 0.00 | 1.26 | 0.00 | 95 | 1012.0 |
| 20260510051701 | 67 | 205 | 0.0 | 0.0 | 0.00 | 1.26 | 0.00 | 95 | 1012.4 |
| 20260510044702 | 67 | 205 | 0.0 | 0.0 | 0.00 | 1.26 | 1.26 | 95 | 1012.8 |
| 20260510043201 | 67 | 205 | 0.0 | 0.0 | 0.00 | 1.26 | 1.26 | 95 | 1012.9 |
| 20260510041702 | 67 | 206 | 0.0 | 0.0 | 0.00 | 1.26 | 1.26 | 95 | 1013.0 |
| 20260510040201 | 67 | 205 | 0.0 | 0.0 | 0.00 | 1.26 | 1.26 | 95 | 1013.3 |
| 20260510034701 | 67 | 205 | 0.0 | 0.0 | 0.00 | 1.26 | 1.26 | 95 | 1013.4 |
| 20260510033201 | 67 | 206 | 0.0 | 0.0 | 0.00 | 1.26 | 1.26 | 95 | 1013.2 |
| 20260510031701 | 67 | 214 | 0.0 | 0.0 | 0.00 | 1.27 | 1.26 | 95 | 1012.5 |
| 20260510030202 | 67 | 312 | 0.0 | 0.0 | 0.00 | 1.27 | 1.26 | 95 | 1012.7 |
| 20260510024701 | 67 | 312 | 0.0 | 0.0 | 0.00 | 1.27 | 1.26 | 95 | 1012.8 |
| 20260510023202 | 67 | 110 | 0.0 | 0.0 | 0.00 | 1.28 | 1.26 | 95 | 1012.8 |
| 20260510021701 | 67 | 110 | 0.0 | 0.0 | 0.00 | 1.29 | 1.26 | 95 | 1012.8 |
| 20260510020201 | 67 | 110 | 0.0 | 0.0 | 0.01 | 1.31 | 1.26 | 95 | 1012.8 |
| 20260510014701 | 67 | 110 | 0.0 | 0.0 | 0.01 | 1.31 | 1.26 | 95 | 1012.9 |
| 20260510013200 | 67 | 110 | 0.0 | 0.0 | 0.01 | 1.31 | 1.26 | 95 | 1012.7 |
| 20260510011700 | 67 | 110 | 0.0 | 0.0 | 0.01 | 1.32 | 1.26 | 95 | 1013.1 |
| 20260510004659 | 68 | 110 | 0.0 | 0.0 | 0.00 | 1.32 | 1.25 | 95 | 1012.2 |
| 20260510003159 | 68 | 110 | 0.0 | 0.0 | 0.00 | 1.33 | 1.25 | 95 | 1011.9 |
| 20260510001659 | 68 | 111 | 0.0 | 0.0 | 0.01 | 1.33 | 1.25 | 95 | 1011.5 |
| 20260510000159 | 68 | 118 | 0.0 | 0.0 | 0.01 | 1.33 | 1.25 | 95 | 1011.5 |
| 20260509234658 | 68 | 118 | 0.0 | 0.0 | 0.02 | 1.33 | 1.25 | 95 | 1011.7 |
| 20260509233159 | 68 | 118 | 0.0 | 0.0 | 0.02 | 1.33 | 1.25 | 95 | 1011.9 |
| 20260509231659 | 69 | 166 | 0.0 | 0.0 | 0.01 | 1.32 | 1.24 | 95 | 1011.8 |
| 20260509224658 | 69 | 79 | 0.0 | 1.7 | 0.00 | 1.33 | 1.23 | 95 | 1011.7 |
| 20260509221658 | 69 | 79 | 0.0 | 0.0 | 0.00 | 1.35 | 1.23 | 96 | 1011.5 |